sat.trackr.live / text

‹ back to catalog

PADRE

NORAD 64559 · 2025-135AH

PAYLOAD ACTIVE UNKNOWN

§ Identity

Operator
Country
US
Launch date
2025-06-23
Launch site
AFWTR
Launch vehicle
Mass (kg)
RCS (m²)

External: N2YO · Heavens-Above · Gunter

§ Orbital elements

Epoch: 2026-09-21T21:07:41.980800Z

Period
96.47 min
Inclination
97.7798°
Eccentricity
0.0000941
Mean motion
14.92744861 rev/d
Perigee alt
588.7 km
Apogee alt
590.0 km
Semi-major
6,967.5 km
B*
1.0312e-4
RAAN
17.3527°
Arg perigee
353.4098°
Mean anomaly
6.7109°
Rev number
6,827

§ Raw data

PADRE1 64559U 25135AH  26264.88034700  .00001009  00000+0  10312-3 0  99942 64559  97.7798  17.3527 0000941 353.4098   6.7109 14.92744861 68271

JSON: /api/v1/satellites/64559 · /tle

For live sub-satellite position, see the globe view (requires WebGL).

§ Visibility from observer

Set your observer location to see the next 7 days of passes ≥ 10°. The values pass through the URL so the page stays shareable.

No JS? Fill the form by hand. The geolocation button needs JavaScript.

§ Radio — SatNOGS DB

ModeDescriptionDownlinkUplink
FM Mode S - Unknown modulation 2.278 GHz
GMSK Mode U - GMSK4k8 401.360 MHz
GMSK Mode U - GMSK9k6 - Telemetry (inactive) 401.360 MHz

3 transmitters · refreshed weekly from db.satnogs.org